TimeEDT,TemperatureF,Dew PointF,Humidity,Sea Level PressureIn,VisibilityMPH,Wind Direction,Wind SpeedMPH,Gust SpeedMPH,PrecipitationIn,Events,Conditions,WindDirDegrees,DateUTC
12:52 AM,48.9,46.9,93,30.04,10.0,Calm,Calm,-,N/A,,Clear,0,2012-09-22 04:52:00
1:40 AM,48.2,46.4,93,30.03,10.0,NNW,3.5,-,N/A,,Scattered Clouds,340,2012-09-22 05:40:00
1:50 AM,48.2,48.2,100,30.03,10.0,NNE,3.5,-,N/A,,Mostly Cloudy,20,2012-09-22 05:50:00
1:52 AM,50.0,48.9,96,30.04,10.0,NNE,3.5,-,N/A,,Mostly Cloudy,20,2012-09-22 05:52:00
2:52 AM,52.0,50.0,93,30.02,10.0,Calm,Calm,-,N/A,,Overcast,0,2012-09-22 06:52:00
3:52 AM,52.0,50.0,93,30.01,10.0,Calm,Calm,-,N/A,,Overcast,0,2012-09-22 07:52:00
4:52 AM,52.0,50.0,93,30.01,10.0,Calm,Calm,-,N/A,,Overcast,0,2012-09-22 08:52:00
5:52 AM,52.0,50.0,93,30.00,10.0,Calm,Calm,-,N/A,,Overcast,0,2012-09-22 09:52:00
6:52 AM,51.1,48.9,92,30.01,10.0,West,3.5,-,N/A,,Overcast,260,2012-09-22 10:52:00
7:35 AM,51.8,48.2,88,30.00,10.0,SSW,3.5,-,N/A,,Overcast,210,2012-09-22 11:35:00
7:52 AM,51.1,48.9,92,30.01,10.0,West,3.5,-,N/A,,Overcast,260,2012-09-22 11:52:00
8:52 AM,53.1,48.9,86,30.00,10.0,Calm,Calm,-,N/A,,Overcast,0,2012-09-22 12:52:00
9:08 AM,53.6,48.2,82,29.98,10.0,East,4.6,-,N/A,,Overcast,100,2012-09-22 13:08:00
10:47 AM,57.2,51.8,82,29.95,10.0,SSW,3.5,-,N/A,,Mostly Cloudy,210,2012-09-22 14:47:00
10:52 AM,57.0,51.1,81,29.96,10.0,Calm,Calm,-,N/A,,Mostly Cloudy,0,2012-09-22 14:52:00
11:11 AM,60.8,51.8,72,29.94,10.0,Calm,Calm,-,N/A,,Scattered Clouds,0,2012-09-22 15:11:00
11:52 AM,64.0,54.0,70,29.93,10.0,SSW,8.1,-,N/A,,Partly Cloudy,200,2012-09-22 15:52:00
12:52 PM,69.1,54.0,58,29.90,10.0,South,9.2,-,N/A,,Clear,170,2012-09-22 16:52:00
1:52 PM,70.0,55.0,59,29.87,10.0,South,12.7,19.6,N/A,,Partly Cloudy,170,2012-09-22 17:52:00
2:52 PM,73.0,55.9,55,29.86,10.0,SSW,13.8,-,N/A,,Clear,200,2012-09-22 18:52:00
4:52 PM,71.1,57.0,61,29.86,10.0,SSW,9.2,-,N/A,,Overcast,200,2012-09-22 20:52:00
5:52 PM,70.0,57.9,65,29.85,10.0,South,10.4,-,N/A,,Mostly Cloudy,190,2012-09-22 21:52:00
6:07 PM,69.8,57.2,64,29.85,10.0,SSW,10.4,-,N/A,,Overcast,200,2012-09-22 22:07:00
6:52 PM,68.0,59.0,73,29.85,10.0,South,9.2,-,N/A,,Overcast,180,2012-09-22 22:52:00
7:52 PM,66.9,59.0,76,29.84,10.0,Variable,6.9,-,N/A,,Overcast,0,2012-09-22 23:52:00
8:52 PM,66.9,60.1,79,29.83,10.0,South,6.9,-,N/A,,Overcast,180,2012-09-23 00:52:00
9:52 PM,66.0,60.1,81,29.82,10.0,South,6.9,-,N/A,,Overcast,170,2012-09-23 01:52:00
10:31 PM,66.2,60.8,83,29.81,10.0,SSE,11.5,18.4,N/A,,Overcast,160,2012-09-23 02:31:00
10:52 PM,64.9,61.0,87,29.81,10.0,SSE,8.1,-,N/A,,Overcast,160,2012-09-23 02:52:00
11:08 PM,64.4,62.6,94,29.81,5.0,South,4.6,-,0.03,Rain-Thunderstorm,Rain,180,2012-09-23 03:08:00
11:17 PM,64.4,60.8,88,29.83,2.0,West,10.4,17.3,0.18,Rain,Heavy Rain,270,2012-09-23 03:17:00
11:20 PM,62.6,60.8,94,29.82,1.8,WNW,8.1,17.3,0.22,Rain,Heavy Rain,300,2012-09-23 03:20:00
11:26 PM,62.6,60.8,94,29.83,2.0,NNW,12.7,-,0.27,Rain-Thunderstorm,Heavy Rain,330,2012-09-23 03:26:00
11:34 PM,62.6,60.8,94,29.83,6.0,NW,10.4,-,0.29,Rain-Thunderstorm,Thunderstorms and Rain,310,2012-09-23 03:34:00
11:52 PM,62.1,59.0,90,29.83,7.0,North,4.6,-,0.34,Rain-Thunderstorm,Rain,360,2012-09-23 03:52:00